Location: Newark
(42.8200°N, 13.1900°E)
Time: 22:52:49
(UTC+00:00)

STARLINK-1286 - Pass Details

Date: 07 April 2020
Orbit: 554 x 555 km, 53.0° (Epoch: 05 June)

Event Time Altitude Azimuth Distance (km) Brightness Sun altitude
Exits shadow 01:45:43 21° 350° (N) 1,288 5.8 -28.9°
Maximum altitude 01:45:50 21° 353° (N) 1,287 5.8 -28.9°
Drops below altitude 10° 01:49:05 10° 43° (NE) 1,850 7.3 -28.4°
Sets 01:51:46 0° 60° (ENE) 2,746 8.4 -28.1°
